Weather History for Paducah, KY

Change the Weather History Date:

Friday, December 7, 2012

  Actual Average Record
Temperature  
Mean Temperature 57 °F 40 °F  
Max Temperature 61 °F 49 °F 69 °F (1966)
Min Temperature 53 °F 30 °F 7 °F (1984)
Degree Days  
Heating Degree Days 8 26  
Month to date heating degree days 60 171  
Since 1 July heating degree days 952 948  
Cooling Degree Days 0 0  
Month to date cooling degree days 1 0  
Year to date cooling degree days 1978 1542  
Growing Degree Days 6 (Base 50)    
Moisture  
Dew Point 54 °F    
Average Humidity 90    
Maximum Humidity 100    
Minimum Humidity 80    
Precipitation  
Precipitation 0.08 in 0.17 in 2.11 in (1978)
Month to date precipitation 0.58 1.09  
Year to date precipitation 26.72 45.58  
Snow  
Snow 0.00 in 0.10 in T in (2011)
Month to date snowfall 0.0 0.3  
Since 1 July snowfall 0.0 0.4  
Snow Depth 0.00 in    
Sea Level Pressure  
Sea Level Pressure 29.88 in    
Wind  
Wind Speed 4 mph (SSW)    
Max Wind Speed 13 mph    
Max Gust Speed 16 mph    
Visibility 5 miles    
Events Fog , Rain    
T = Trace of Precipitation, MM = Missing Value Source: NWS Daily Summary

Daily Weather History Graph

Daily Weather History Graph

Search for Another Location

Airport:

Trip Planner

Search our weather history database for the weather conditions in past years. The results will help you decide how hot, cold, wet, or windy it might be!

Date:

Astronomy

Dec. 07, 2012 Rise Set
Actual Time 6:55 AM CST 4:37 PM CST
Civil Twilight 6:26 AM CST 5:06 PM CST
Nautical Twilight 5:54 AM CST 5:39 PM CST
Astronomical Twilight 5:22 AM CST 6:10 PM CST
Moon 12:22 AM CST (12/7) 12:27 PM CST (12/7)
Length of Visible Light 10h 40m
Length of Day
9h 42m
Last Quarter, 38% of the Moon is Illuminated
Dec 7
Last Quarter
Dec 13
New
Dec 19
First Quarter
Dec 28
Full
Jan 4
Last Quarter

Hourly Weather History & Observations

Time (CST) Temp. Dew Point Humidity Pressure Visibility Wind Dir Wind Speed Gust Speed Precip Events Conditions
12:19 AM 53.6 °F 51.8 °F 94% 29.94 in 5.0 mi Calm Calm - N/A   Overcast
12:31 AM 53.6 °F 51.8 °F 94% 29.93 in 5.0 mi SE 3.5 mph - N/A   Overcast
12:46 AM 53.6 °F 51.8 °F 94% 29.93 in 5.0 mi Calm Calm - N/A   Overcast
12:53 AM 53.1 °F 52.0 °F 96% 29.93 in 5.0 mi SE 3.5 mph - N/A   Overcast
1:53 AM 53.1 °F 51.1 °F 93% 29.93 in 4.0 mi Calm Calm - N/A   Overcast
2:23 AM 53.6 °F 51.8 °F 94% 29.92 in 1.8 mi Calm Calm - N/A   Overcast
2:33 AM 53.6 °F 51.8 °F 94% 29.91 in 0.5 mi Calm Calm - N/A Fog Fog
2:42 AM 53.6 °F 51.8 °F 94% 29.92 in 0.2 mi Calm Calm - N/A Fog Fog
2:53 AM 53.1 °F 52.0 °F 96% 29.91 in 0.2 mi Calm Calm - N/A Fog Fog
3:22 AM 53.6 °F 53.6 °F 100% 29.91 in 0.8 mi SE 3.5 mph - N/A   Mist
3:35 AM 53.6 °F 53.6 °F 100% 29.91 in 1.2 mi Calm Calm - N/A   Overcast
3:53 AM 54.0 °F 53.1 °F 97% 29.91 in 1.2 mi SE 3.5 mph - N/A   Overcast
4:14 AM 53.6 °F 53.6 °F 100% 29.90 in 0.5 mi Calm Calm - N/A Fog Fog
4:53 AM 53.1 °F 53.1 °F 100% 29.90 in 0.8 mi Calm Calm - 0.00 in Rain Light Rain
5:06 AM 53.6 °F 53.6 °F 100% 29.90 in 1.5 mi Calm Calm - 0.03 in Rain Light Rain
5:14 AM 53.6 °F 53.6 °F 100% 29.89 in 2.0 mi Calm Calm - 0.04 in Rain Light Rain
5:21 AM 53.6 °F 53.6 °F 100% 29.89 in 2.0 mi SE 3.5 mph - 0.04 in   Overcast
5:35 AM 53.6 °F 53.6 °F 100% 29.89 in 1.8 mi Calm Calm - 0.04 in   Overcast
5:39 AM 53.6 °F 53.6 °F 100% 29.90 in 2.0 mi Calm Calm - 0.04 in   Overcast
5:50 AM 53.6 °F 53.6 °F 100% 29.89 in 2.0 mi Calm Calm - 0.04 in   Overcast
5:51 AM 54.0 °F 53.1 °F 97% 29.89 in 2.0 mi Calm Calm - 0.04 in   Overcast
6:08 AM 55.4 °F 53.6 °F 94% 29.90 in 3.0 mi Calm Calm - N/A   Overcast
6:53 AM 55.9 °F 55.0 °F 97% 29.91 in 5.0 mi SSW 4.6 mph - 0.00 in Rain Light Rain
7:38 AM 57.2 °F 55.4 °F 94% 29.90 in 5.0 mi South 8.1 mph - 0.01 in   Overcast
7:53 AM 57.0 °F 55.0 °F 93% 29.90 in 6.0 mi SSW 5.8 mph - 0.01 in   Overcast
8:22 AM 57.2 °F 55.4 °F 94% 29.90 in 6.0 mi South 3.5 mph - N/A   Overcast
8:53 AM 57.0 °F 55.0 °F 93% 29.91 in 4.0 mi SSW 5.8 mph - 0.00 in Rain Light Rain
9:39 AM 57.2 °F 55.4 °F 94% 29.92 in 2.5 mi SW 6.9 mph - 0.03 in Rain Light Rain
9:46 AM 57.2 °F 55.4 °F 94% 29.92 in 6.0 mi SW 8.1 mph - 0.03 in   Overcast
9:53 AM 57.9 °F 55.9 °F 93% 29.92 in 6.0 mi SW 6.9 mph - 0.03 in   Overcast
10:53 AM 59.0 °F 57.0 °F 93% 29.90 in 5.0 mi SSW 5.8 mph - N/A   Overcast
11:23 AM 59.0 °F 57.2 °F 94% 29.88 in 6.0 mi SSW 6.9 mph - N/A   Overcast
11:53 AM 60.1 °F 57.0 °F 90% 29.87 in 6.0 mi SW 6.9 mph - N/A   Overcast
12:16 PM 60.8 °F 55.4 °F 82% 29.86 in 7.0 mi SSW 6.9 mph - N/A   Overcast
12:25 PM 60.8 °F 55.4 °F 82% 29.86 in 7.0 mi SW 10.4 mph - N/A   Overcast
12:53 PM 61.0 °F 55.9 °F 83% 29.85 in 8.0 mi SSW 8.1 mph - N/A   Overcast
1:07 PM 60.8 °F 55.4 °F 82% 29.84 in 8.0 mi SSW 10.4 mph - N/A   Overcast
1:53 PM 60.1 °F 55.0 °F 83% 29.83 in 8.0 mi SW 6.9 mph - N/A   Overcast
2:14 PM 60.8 °F 55.4 °F 82% 29.83 in 9.0 mi SW 9.2 mph - N/A   Mostly Cloudy
2:53 PM 61.0 °F 55.0 °F 81% 29.83 in 8.0 mi SW 6.9 mph - N/A   Partly Cloudy
3:40 PM 60.8 °F 55.4 °F 82% 29.83 in 8.0 mi SW 4.6 mph - N/A   Overcast
3:53 PM 60.1 °F 55.0 °F 83% 29.84 in 8.0 mi WSW 5.8 mph - N/A   Overcast
4:31 PM 59.0 °F 55.4 °F 88% 29.84 in 8.0 mi SW 3.5 mph - N/A   Overcast
4:53 PM 57.9 °F 55.0 °F 90% 29.84 in 9.0 mi South 3.5 mph - N/A   Mostly Cloudy
5:53 PM 55.9 °F 54.0 °F 93% 29.86 in 7.0 mi Calm Calm - N/A   Overcast
6:53 PM 57.2 °F 53.6 °F 88% 29.87 in 7.0 mi Calm Calm - N/A   Overcast
7:53 PM 59.0 °F 54.0 °F 83% 29.86 in 9.0 mi SSW 4.6 mph - N/A   Overcast
8:53 PM 57.9 °F 54.0 °F 87% 29.86 in 8.0 mi South 3.5 mph - N/A   Overcast
9:53 PM 57.9 °F 55.0 °F 90% 29.86 in 6.0 mi South 3.5 mph - N/A   Mostly Cloudy
10:29 PM 57.2 °F 55.4 °F 94% 29.87 in 6.0 mi SSW 3.5 mph - N/A   Overcast
10:53 PM 57.9 °F 55.9 °F 93% 29.86 in 5.0 mi South 3.5 mph - N/A   Overcast
11:25 PM 57.2 °F 55.4 °F 94% 29.85 in 5.0 mi Calm Calm - N/A   Overcast
11:44 PM 57.2 °F 55.4 °F 94% 29.85 in 5.0 mi SSW 3.5 mph - N/A   Overcast
11:53 PM 57.9 °F 55.9 °F 93% 29.85 in 5.0 mi SSW 3.5 mph - N/A   Overcast